EW4210 Weather Reports


Display with metric or nautical units.
time (UTC)temp
F
wind
direction
speed
MPH
gust
MPH
rain 1hr
in
rain 24hr
in
rain mn
in
humidity
%
barometer
mb
20260902023041 83 92 0.0 0.0 0.00 0.00 0.00 73 1014.3
20260902021528 83 92 0.0 0.0 0.00 0.00 0.00 72 1014.0
20260902020011 83 92 0.0 0.0 0.00 0.00 0.00 72 1013.8
20260902014554 84 92 0.0 0.0 0.00 0.00 0.00 71 1013.5
20260902013031 85 92 0.0 0.0 0.00 0.00 0.00 67 1013.4
20260902011521 86 92 0.0 0.0 0.00 0.00 0.00 64 1013.3
20260902010115 86 92 0.0 1.0 0.00 0.00 0.00 63 1013.4
20260902004533 87 92 0.0 2.0 0.00 0.00 0.00 62 1013.5
20260902003022 88 91 0.0 2.0 0.00 0.00 0.00 61 1013.5
20260902001557 89 117 0.0 2.0 0.00 0.00 0.00 58 1013.6
20260902000045 91 117 0.0 2.0 0.00 0.00 0.00 54 1013.7
20260901234517 92 119 0.0 0.0 0.00 0.00 0.00 54 1013.9
20260901233102 92 116 1.0 3.0 0.00 0.00 0.00 50 1013.9
20260901231545 93 110 1.0 3.0 0.00 0.00 0.00 49 1014.0
20260901230028 93 107 1.0 8.0 0.00 0.00 0.00 47 1014.0
20260901224503 94 66 0.0 3.0 0.00 0.00 0.00 46 1014.0
20260901223048 94 65 1.0 5.0 0.00 0.00 0.00 45 1013.9
20260901221521 94 105 0.0 5.0 0.00 0.00 0.00 49 1013.9
20260901220056 95 75 1.0 6.0 0.00 0.00 0.00 48 1014.0
20260901214545 95 101 2.0 5.0 0.00 0.00 0.00 48 1014.1
20260901213033 95 120 2.0 7.0 0.00 0.00 0.00 46 1014.2
20260901211517 95 64 2.0 6.0 0.00 0.00 0.00 47 1014.3
20260901210045 95 61 1.0 4.0 0.00 0.00 0.00 49 1014.4
20260901204528 95 127 0.0 4.0 0.00 0.00 0.00 55 1014.4
20260901203009 94 102 1.0 7.0 0.00 0.00 0.00 53 1014.6
20260901201547 94 121 2.0 7.0 0.00 0.00 0.00 52 1014.8
20260901200041 95 75 2.0 8.0 0.00 0.00 0.00 52 1014.9
20260901194506 95 91 2.0 6.0 0.00 0.00 0.00 52 1015.1
20260901193059 96 34 2.0 7.0 0.00 0.00 0.00 52 1015.2
20260901191534 95 111 1.0 4.0 0.00 0.00 0.00 51 1015.4
20260901190012 95 38 5.0 9.0 0.00 0.00 0.00 48 1015.6
20260901184550 95 130 3.0 6.0 0.00 0.00 0.00 49 1015.8
20260901183028 96 269 0.0 4.0 0.00 0.00 0.00 53 1015.9
20260901181510 95 161 1.0 4.0 0.00 0.00 0.00 53 1016.2
20260901180051 94 69 1.0 8.0 0.00 0.00 0.00 53 1016.3
20260901174545 94 153 2.0 3.0 0.00 0.00 0.00 54 1016.4
20260901173020 94 121 2.0 4.0 0.00 0.00 0.00 53 1016.7
20260901171557 94 74 0.0 2.0 0.00 0.00 0.00 59 1016.9
20260901170117 94 146 0.0 4.0 0.00 0.00 0.00 54 1017.1
20260901164518 92 248 1.0 4.0 0.00 0.00 0.00 59 1017.4
20260901163104 93 274 2.0 4.0 0.00 0.00 0.00 54 1017.4
20260901161537 92 268 3.0 5.0 0.00 0.00 0.00 57 1017.5
20260901160026 92 223 0.0 3.0 0.00 0.00 0.00 61 1017.6
20260901154603 91 255 1.0 3.0 0.00 0.00 0.00 60 1017.5
20260901154501 91 255 1.0 3.0 0.00 0.00 0.00 59 1017.6
20260901153049 92 113 0.0 2.0 0.00 0.00 0.00 58 1017.6
20260901151510 91 191 0.0 2.0 0.00 0.00 0.00 60 1017.5
20260901150036 90 204 0.0 0.0 0.00 0.00 0.00 62 1017.5
20260901144516 89 117 0.0 0.0 0.00 0.00 0.00 68 1017.4
20260901143052 88 117 0.0 0.0 0.00 0.00 0.00 69 1017.3
20260901141538 87 118 0.0 0.0 0.00 0.00 0.00 73 1017.4
20260901140009 85 132 0.0 0.0 0.00 0.00 0.00 74 1017.4
20260901134544 83 106 0.0 0.0 0.00 0.00 0.00 79 1017.4
20260901133024 81 83 0.0 0.0 0.00 0.00 0.00 82 1017.5
20260901131619 78 83 0.0 0.0 0.00 0.00 0.00 88 1017.4
20260901130043 75 83 0.0 0.0 0.00 0.00 0.00 92 1017.3
20260901124512 74 83 0.0 0.0 0.00 0.00 0.00 92 1017.4
20260901123100 73 83 0.0 0.0 0.00 0.00 0.00 94 1017.3
20260901123002 73 83 0.0 0.0 0.00 0.00 0.00 94 1017.3
20260901121528 73 85 0.0 0.0 0.00 0.00 0.00 93 1017.1
20260901120011 72 85 0.0 0.0 0.00 0.00 0.00 93 1017.1
20260901114549 73 85 0.0 0.0 0.00 0.00 0.00 93 1016.7
20260901113031 73 88 0.0 0.0 0.00 0.00 0.00 92 1016.7
20260901111513 73 88 0.0 0.0 0.00 0.00 0.00 92 1016.5
20260901110053 73 88 0.0 0.0 0.00 0.00 0.00 92 1016.4
20260901104539 73 88 0.0 0.0 0.00 0.00 0.00 92 1016.3
20260901103023 73 88 0.0 0.0 0.00 0.00 0.00 92 1016.3
20260901101505 74 88 0.0 0.0 0.00 0.00 0.00 91 1016.2
20260901100058 74 88 0.0 0.0 0.00 0.00 0.00 91 1016.2
20260901094529 74 88 0.0 0.0 0.00 0.00 0.00 91 1016.1
20260901093008 74 88 0.0 0.0 0.00 0.00 0.00 90 1016.0
20260901091545 75 88 0.0 0.0 0.00 0.00 0.00 89 1015.9
20260901090039 75 88 0.0 0.0 0.00 0.00 0.00 89 1015.9
20260901084509 75 88 0.0 0.0 0.00 0.00 0.00 88 1015.8
20260901083055 75 88 0.0 0.0 0.00 0.00 0.00 88 1015.8
20260901081533 75 88 0.0 0.0 0.00 0.00 0.00 88 1015.6
20260901080013 75 88 0.0 0.0 0.00 0.00 0.00 87 1015.6
20260901074558 75 88 0.0 0.0 0.00 0.00 0.00 87 1015.5
20260901074503 75 88 0.0 0.0 0.00 0.00 0.00 87 1015.5
20260901073040 76 88 0.0 0.0 0.00 0.00 0.00 86 1015.6
20260901071517 76 88 0.0 0.0 0.00 0.00 0.00 85 1015.5
20260901070052 77 88 0.0 0.0 0.00 0.00 0.00 83 1015.5
20260901064537 77 88 0.0 0.0 0.00 0.00 0.00 83 1015.5
20260901063012 78 88 0.0 0.0 0.00 0.00 0.00 82 1015.5
20260901061605 78 88 0.0 0.0 0.00 0.00 0.00 81 1015.4
20260901060046 78 88 0.0 0.0 0.00 0.00 0.00 80 1015.4
20260901054521 78 88 0.0 0.0 0.00 0.00 0.00 79 1015.4
20260901053009 79 88 0.0 1.0 0.00 0.00 0.00 78 1015.3
20260901051544 79 88 0.0 0.0 0.00 0.00 0.00 77 1015.4
20260901050028 80 88 0.0 0.0 0.00 0.00 0.00 76 1015.3
20260901044508 81 88 0.0 1.0 0.00 0.00 0.00 75 1015.4
20260901043051 81 88 0.0 1.0 0.00 0.00 0.00 75 1015.4
20260901041537 81 88 0.0 1.0 0.00 0.00 0.00 74 1015.4
20260901040019 81 63 0.0 1.0 0.00 0.00 0.00 74 1015.3
20260901034558 81 63 0.0 2.0 0.00 0.00 0.00 73 1015.4
20260901034502 81 63 0.0 2.0 0.00 0.00 0.00 73 1015.5
20260901033047 81 69 0.0 0.0 0.00 0.00 0.00 73 1015.4
20260901031546 82 69 0.0 2.0 0.00 0.00 0.00 72 1015.2
20260901030021 83 69 0.0 1.0 0.00 0.00 0.00 70 1015.2
20260901024559 83 69 0.0 1.0 0.00 0.00 0.00 69 1015.1